• en France
  • Liste des pays
  • À 7 jours
  • Température de l'eau
  • Carte satellitaire
  • Carte météo
  • Widgets météo
  • user-avatar
    Se connecter

    Météo par heure à Florencia

    Ce jour, 24 Mai, Jeudi

    Heure Température Précipitation Vent Pression Humidité
    00:00 +22°C° 0,7 mm 0 m/s 735 mmHg 92%
    01:00 +22°C° 0,7 mm 0 m/s 735 mmHg 92%
    02:00 +22°C° 1,7 mm 0 m/s 735 mmHg 93%
    03:00 +22°C° 1,7 mm 0 m/s 735 mmHg 94%
    04:00 +22°C° 1,7 mm 0 m/s 734 mmHg 95%
    05:00 +22°C° 2 mm 0 m/s 735 mmHg 95%
    06:00 +21°C° 2 mm 0 m/s 735 mmHg 95%
    07:00 +21°C° 2 mm 0 m/s 735 mmHg 96%
    08:00 +22°C° 2,7 mm 0 m/s 736 mmHg 95%
    09:00 +22°C° 2,7 mm 0 m/s 736 mmHg 95%
    10:00 +22°C° 2,7 mm 0 m/s 736 mmHg 95%
    11:00 +22°C° 2,7 mm 0 m/s 736 mmHg 96%
    12:00 +22°C° 2,7 mm 0 m/s 735 mmHg 96%
    13:00 +22°C° 2,7 mm 0 m/s 735 mmHg 97%
    14:00 +22°C° 1,2 mm 0 m/s 734 mmHg 96%
    15:00 +22°C° 1,2 mm 0 m/s 734 mmHg 94%
    16:00 +25°C° 1,2 mm 1 m/s 733 mmHg 93%
    17:00 +24°C° 0,5 mm 1 m/s 734 mmHg 94%
    18:00 +24°C° 0,5 mm 1 m/s 734 mmHg 94%
    19:00 +24°C° 0,5 mm 1 m/s 734 mmHg 95%
    20:00 +23°C° 0,3 mm 1 m/s 735 mmHg 93%
    21:00 +23°C° 0,3 mm 1 m/s 735 mmHg 92%
    22:00 +23°C° 0,3 mm 1 m/s 735 mmHg 91%
    23:00 +23°C° 0,4 mm 1 m/s 735 mmHg 90%

    Demain, 25 Mai, Vendredi

    Heure Température Précipitation Vent Pression Humidité
    00:00 +21°C° 0,4 mm 0 m/s 735 mmHg 90%
    01:00 +21°C° 0,4 mm 0 m/s 735 mmHg 90%
    02:00 +21°C° 1,2 mm 0 m/s 734 mmHg 91%
    03:00 +21°C° 1,2 mm 0 m/s 734 mmHg 92%
    04:00 +21°C° 1,2 mm 0 m/s 734 mmHg 92%
    05:00 +21°C° 1,7 mm 0 m/s 734 mmHg 93%
    06:00 +21°C° 1,7 mm 0 m/s 734 mmHg 93%
    07:00 +21°C° 1,7 mm 0 m/s 735 mmHg 93%
    08:00 +22°C° 1,5 mm 0 m/s 735 mmHg 93%
    09:00 +22°C° 1,5 mm 0 m/s 735 mmHg 92%
    10:00 +23°C° 1,5 mm 0 m/s 736 mmHg 91%
    11:00 +23°C° 1,4 mm 0 m/s 735 mmHg 89%
    12:00 +26°C° 1,4 mm 1 m/s 735 mmHg 87%
    13:00 +26°C° 1,4 mm 1 m/s 735 mmHg 85%
    14:00 +26°C° 0,8 mm 1 m/s 734 mmHg 86%
    15:00 +26°C° 0,8 mm 1 m/s 733 mmHg 87%
    16:00 +26°C° 0,8 mm 1 m/s 733 mmHg 88%
    17:00 +25°C° 0,7 mm 1 m/s 733 mmHg 90%
    18:00 +25°C° 0,7 mm 1 m/s 733 mmHg 93%
    19:00 +22°C° 0,7 mm 0 m/s 733 mmHg 95%
    20:00 +24°C° 0,3 mm 1 m/s 734 mmHg 94%
    21:00 +23°C° 0,3 mm 1 m/s 734 mmHg 94%
    22:00 +23°C° 0,3 mm 1 m/s 735 mmHg 93%
    23:00 +23°C° 0,3 mm 1 m/s 734 mmHg 93%

    Après-demain, 26 Mai, Samedi

    Heure Température Précipitation Vent Pression Humidité
    00:00 +23°C° 0,3 mm 1 m/s 734 mmHg 92%
    01:00 +23°C° 0,3 mm 1 m/s 734 mmHg 91%
    02:00 +21°C° 0,3 mm 0 m/s 734 mmHg 91%
    03:00 +21°C° 0,3 mm 0 m/s 733 mmHg 90%
    04:00 +21°C° 0,3 mm 0 m/s 733 mmHg 90%
    05:00 +21°C° 0,2 mm 0 m/s 733 mmHg 89%
    06:00 +22°C° 0,2 mm 0 m/s 734 mmHg 88%
    07:00 +22°C° 0,2 mm 0 m/s 734 mmHg 87%
    08:00 +22°C° 0,5 mm 0 m/s 734 mmHg 86%
    09:00 +23°C° 0,5 mm 0 m/s 735 mmHg 86%
    10:00 +23°C° 0,5 mm 0 m/s 735 mmHg 86%
    11:00 +23°C° 1 mm 0 m/s 734 mmHg 86%
    12:00 +23°C° 1 mm 0 m/s 734 mmHg 87%
    13:00 +24°C° 1 mm 0 m/s 733 mmHg 87%
    14:00 +26°C° 0,3 mm 1 m/s 733 mmHg 82%
    15:00 +27°C° 0,3 mm 1 m/s 732 mmHg 78%
    16:00 +28°C° 0,3 mm 1 m/s 732 mmHg 73%
    17:00 +27°C° 0,1 mm 1 m/s 732 mmHg 77%
    18:00 +26°C° 0,1 mm 1 m/s 732 mmHg 81%
    19:00 +23°C° 0,1 mm 0 m/s 733 mmHg 85%
    20:00 +23°C° 0,2 mm 0 m/s 733 mmHg 85%
    21:00 +22°C° 0,2 mm 0 m/s 734 mmHg 85%
    22:00 +22°C° 0,2 mm 0 m/s 734 mmHg 86%
    23:00 +22°C° 0,7 mm 0 m/s 734 mmHg 87%

    27 Mai, Dimanche

    Heure Température Précipitation Vent Pression Humidité
    00:00 +22°C° 0,7 mm 0 m/s 734 mmHg 88%
    01:00 +22°C° 0,7 mm 0 m/s 734 mmHg 89%
    02:00 +21°C° 1 mm 0 m/s 733 mmHg 89%
    03:00 +21°C° 1 mm 0 m/s 733 mmHg 89%
    04:00 +21°C° 1 mm 0 m/s 733 mmHg 89%
    05:00 +22°C° 0,9 mm 0 m/s 733 mmHg 88%
    06:00 +22°C° 0,9 mm 0 m/s 733 mmHg 87%
    07:00 +22°C° 0,9 mm 0 m/s 734 mmHg 87%
    08:00 +23°C° 0,7 mm 0 m/s 734 mmHg 82%
    09:00 +25°C° 0,7 mm 0 m/s 735 mmHg 78%
    10:00 +28°C° 0,7 mm 1 m/s 735 mmHg 74%
    11:00 +29°C° 0,3 mm 1 m/s 734 mmHg 71%
    12:00 +29°C° 0,3 mm 1 m/s 734 mmHg 69%
    13:00 +30°C° 0,3 mm 1 m/s 733 mmHg 66%
    14:00 +30°C° 0,2 mm 1 m/s 733 mmHg 67%
    15:00 +30°C° 0,2 mm 1 m/s 732 mmHg 68%
    16:00 +30°C° 0,2 mm 1 m/s 731 mmHg 68%
    17:00 +28°C° 0,1 mm 1 m/s 732 mmHg 74%
    18:00 +27°C° 0,1 mm 1 m/s 732 mmHg 80%
    19:00 +25°C° 0,1 mm 1 m/s 733 mmHg 86%
    20:00 +25°C° 0,2 mm 1 m/s 733 mmHg 86%
    21:00 +24°C° 0,2 mm 1 m/s 734 mmHg 86%
    22:00 +24°C° 0,2 mm 1 m/s 735 mmHg 86%
    23:00 +22°C° 0,3 mm 0 m/s 734 mmHg 86%

    28 Mai, Lundi

    Heure Température Précipitation Vent Pression Humidité
    00:00 +22°C° 0,3 mm 0 m/s 734 mmHg 86%
    01:00 +22°C° 0,3 mm 0 m/s 734 mmHg 85%
    02:00 +22°C° 0,2 mm 0 m/s 734 mmHg 85%
    03:00 +22°C° 0,2 mm 0 m/s 733 mmHg 85%
    04:00 +21°C° 0,2 mm 0 m/s 733 mmHg 85%
    05:00 +22°C° 0,2 mm 0 m/s 734 mmHg 84%
    06:00 +22°C° 0,2 mm 0 m/s 734 mmHg 84%
    07:00 +22°C° 0,2 mm 0 m/s 734 mmHg 83%
    08:00 +23°C° 0,3 mm 0 m/s 735 mmHg 81%
    09:00 +24°C° 0,3 mm 0 m/s 735 mmHg 79%
    10:00 +25°C° 0,3 mm 0 m/s 735 mmHg 77%
    11:00 +27°C° 0,3 mm 1 m/s 735 mmHg 76%
    12:00 +27°C° 0,3 mm 1 m/s 734 mmHg 76%
    13:00 +28°C° 0,3 mm 1 m/s 734 mmHg 75%
    14:00 +27°C° 0,2 mm 1 m/s 733 mmHg 77%
    15:00 +27°C° 0,2 mm 1 m/s 733 mmHg 78%
    16:00 +27°C° 0,2 mm 1 m/s 732 mmHg 80%
    17:00 +26°C° 0,3 mm 1 m/s 733 mmHg 84%
    18:00 +25°C° 0,3 mm 1 m/s 733 mmHg 87%
    19:00 +24°C° 0,3 mm 1 m/s 734 mmHg 91%
    20:00 +24°C° 0,4 mm 1 m/s 734 mmHg 90%
    21:00 +24°C° 0,4 mm 1 m/s 735 mmHg 90%
    22:00 +22°C° 0,4 mm 0 m/s 735 mmHg 89%
    23:00 +22°C° 0,4 mm 0 m/s 735 mmHg 89%

    29 Mai, Mardi

    Heure Température Précipitation Vent Pression Humidité
    00:00 +21°C° 0,4 mm 0 m/s 734 mmHg 88%
    01:00 +21°C° 0,4 mm 0 m/s 734 mmHg 87%
    02:00 +21°C° 0,3 mm 0 m/s 734 mmHg 87%
    03:00 +21°C° 0,3 mm 0 m/s 733 mmHg 87%
    04:00 +21°C° 0,3 mm 0 m/s 733 mmHg 87%
    05:00 +21°C° 0,2 mm 0 m/s 734 mmHg 86%
    06:00 +22°C° 0,2 mm 0 m/s 734 mmHg 85%
    07:00 +22°C° 0,2 mm 0 m/s 734 mmHg 84%
    08:00 +23°C° 0,4 mm 0 m/s 735 mmHg 79%
    09:00 +27°C° 0,4 mm 1 m/s 735 mmHg 75%
    10:00 +28°C° 0,4 mm 1 m/s 735 mmHg 71%
    11:00 +29°C° 0,6 mm 1 m/s 735 mmHg 71%
    12:00 +29°C° 0,6 mm 1 m/s 734 mmHg 71%
    13:00 +29°C° 0,6 mm 1 m/s 734 mmHg 72%
    14:00 +30°C° 0,3 mm 1 m/s 733 mmHg 72%
    15:00 +30°C° 0,3 mm 1 m/s 732 mmHg 72%
    16:00 +30°C° 0,3 mm 1 m/s 732 mmHg 72%
    17:00 +28°C° 0,2 mm 1 m/s 732 mmHg 79%
    18:00 +25°C° 0,2 mm 0 m/s 732 mmHg 87%
    19:00 +23°C° 0,2 mm 0 m/s 733 mmHg 95%
    20:00 +23°C° 0,1 mm 0 m/s 733 mmHg 95%
    21:00 +23°C° 0,1 mm 0 m/s 734 mmHg 95%
    22:00 +23°C° 0,1 mm 0 m/s 734 mmHg 94%
    23:00 +23°C° 0,2 mm 0 m/s 734 mmHg 94%
    Voir plus